www.pogodaiklimat.ru

Погода и климат >> Архив погоды >> Шри Ланка >> Ратнапура


ПОГОДА в Ратнапуре

  • Прогноз погоды в Ратнапуре
  • Монитор погоды в Ратнапуре

АРХИВ ПОГОДЫ в Ратнапуре

Время (UTC), дата Ветер
(напр.,м/с)
 
Видим.   Явления Облачность Т
(С)
Тd
(С)
f
(%)
Тe
(С)
Тes
(С)
Комфортность P
(гПа)
Po
(гПа)
Тmin
(С)
Tmax
(С)
R
(мм)
R24
(мм)
S
(см)
03 12.08 СВ 2 5000 м ливневой дождь 10/10 240 м
[Frnb]
+24.0 +23.5 97 +32 +32 очень
душно
1010.4 1000.5 +23.8 4
06 12.08 СВ 5 8000 м мгла 10/10 240 м
[Frnb]
+26.1 +24.9 93 +37 +37 очень
душно
1009.7 999.8 2
09 12.08 СВ 4 8000 м мгла 10/4 480 м
[Cu med, cong Ac As]
+27.0 +25.0 89 +39 +41 очень
душно
1008.1 998.3 15
12 12.08 СЗ 5 8000 м мгла 8/1 480 м
[Cu hum Ac As]
+28.5 +24.2 78 +40 +40 очень
душно
1006.6 996.8 +28.8
15 12.08 С 2 8000 м мгла 9/3 480 м
[Cu hum Ac As]
+26.2 +23.9 87 +36 +36 очень
душно
1009.3 999.4
18 12.08 С 2 8000 м мгла 6/3 480 м
[Cu hum Ac trans]
+25.5 +23.5 89 +35 +35 очень
душно
1009.5 999.6
21 12.08 СВ 4 7000 м слаб. ливневой дождь 10/5 480 м
[Cu med, cong Ac As]
+25.5 +23.3 88 +34 +34 очень
душно
1008.8 998.9 0.3
03 13.08 ЮЗ 2 5000 м слаб. ливневой дождь 9/9 240 м
[Frnb]
+26.0 +25.3 96 +38 +38 очень
душно
1010.1 1000.2 +23.6 12
09 13.08 ЮЗ 4 1000 м сильн. гроза, ливневой дождь 10/10 450 м
[Cb cap]
+23.2 +23.2 100 +33 +33 очень
душно
1010.1 1000.1 95
12 13.08 В 3 7000 м слаб. дождь {гроза} 10/5 <50 м
[Cb cap Ac As]
+23.4 +22.8 96 +33 +33 очень
душно
1010.1 1000.1 +26.4 42
15 13.08 СВ 3 10 км {ливн. осадки, дождь} 10/4 480 м
[Cu med, cong As op]
+23.9 +23.4 97 +32 +32 очень
душно
1010.9 1000.9 0.3
18 13.08 СВ 2 10 км {ливн. осадки, дождь} 10/4 480 м
[Cu med, cong Ac As]
+23.5 +23.1 98 +31 +31 очень
душно
1011.3 1001.3 2
21 13.08 С 5 10 км {ливн. осадки} 10/5 480 м
[Cu med, cong Ac As]
+24.2 +23.3 95 +32 +32 очень
душно
1010.2 1000.3 0.1
00 14.08 С 6 10 км {ливн. осадки} 10/4 480 м
[Cu med, cong Ac As]
+24.6 +22.9 90 +33 +33 очень
душно
1010.3 1000.4 0.0
03 14.08 С 3 8000 м дымка 6/3 480 м
[Cu med, cong Ac trans Cs]
+26.5 +23.7 85 +36 +40 очень
душно
1010.9 1001.0 +23.1
06 14.08 С 4 5000 м слаб. ливневой дождь 9/9 360 м
[Frnb]
+29.8 +24.5 73 +42 +43 опасность
перегрева
1010.3 1000.5 0.0
09 14.08 З 3 7000 м слаб. ливневой дождь 9/8 360 м
[Frnb Ac As]
+28.5 +24.5 79 +40 +42 очень
душно
1009.4 999.6 6
12 14.08 С 3 8000 м в посл. час ливневой дождь 9/6 240 м
[Frnb Ac As]
+27.2 +24.0 83 +38 +38 очень
душно
1009.7 999.9 +30.0 3
15 14.08 С 3 10 км 6/4 360 м
[Frnb Ac As Cs]
+25.5 +23.9 91 +35 +35 очень
душно
1011.0 1001.1
18 14.08 С 3 10 км 8/4 240 м
[Frnb Ac As]
+26.2 +23.0 83 +35 +35 очень
душно
1011.5 1001.6
21 14.08 С 5 10 км 8/3 480 м
[Cu hum Ac As]
+25.5 +22.7 85 +34 +34 очень
душно
1010.4 1000.5
00 15.08 СЗ 2 6000 м дымка 8/3 480 м
[Cu hum Ac As]
+24.7 +23.1 91 +33 +33 очень
душно
1010.7 1000.8
03 15.08 З 3 8000 м дымка 8/4 360 м
[Frnb Ac As]
+25.7 +24.7 94 +36 +38 очень
душно
1011.7 1001.8 +24.1
06 15.08 штиль 0 8000 м мгла 9/4 480 м
[Cu hum Ac cuf Cs]
+28.9 +24.5 77 +41 +51 опасность
перегрева
1011.3 1001.5
09 15.08 СЗ 4 10 км 9/4 480 м
[Cu med, cong Ac trans Cs]
+30.2 +24.5 72 +43 +46 опасность
перегрева
1009.1 999.4
15 15.08 С 2 10 км 9/3 480 м
[Cu hum Ac cuf]
+26.5 +23.7 85 +36 +36 очень
душно
1010.4 1000.5
21 15.08 С 1 7000 м дымка 10/5 480 м
[Cu Sc Ac cuf]
+25.2 +23.7 91 +34 +34 очень
душно
1010.5 1000.6
00 16.08 С 1 6000 м дымка 10/3 480 м
[Cu med, cong Ac cuf]
+26.5 +23.5 84 +36 +36 очень
душно
1010.1 1000.2
03 16.08 СЗ 1 6000 м дымка 10/8 360 м
[Frnb As op]
+26.3 +24.5 90 +37 +37 очень
душно
1010.4 1000.5 +25.0
06 16.08 СЗ 3 8000 м мгла 10/8 360 м
[Frnb As op]
+27.8 +25.7 88 +41 +42 опасность
перегрева
1010.6 1000.8 2
09 16.08 СЗ 6 8000 м мгла {гроза} 10/4 480 м
[Cu med, cong Ac As]
+29.2 +24.0 74 +41 +42 опасность
перегрева
1009.0 999.2 0.0
12 16.08 штиль 0 8000 м мгла {гроза} 9/3 480 м
[Cu med, cong Ac cuf]
+27.4 +24.5 84 +39 +39 очень
душно
1008.6 998.8 +30.4
15 16.08 СЗ 2 8000 м слаб. ливневой дождь 10/5 450 м
[Cb cap As op]
+26.0 +24.6 92 +37 +37 очень
душно
1009.9 1000.0 0.5
18 16.08 ЮЗ 1 7000 м дымка {ливн. осадки} 9/4 480 м
[Cu med, cong Ac cuf Cs]
+25.1 +24.8 98 +35 +35 очень
душно
1010.1 1000.2 0.0
21 16.08 штиль 0 7000 м дымка 10/4 480 м
[Cu med, cong Ac cuf]
+25.0 +24.7 98 +35 +35 очень
душно
1008.6 998.7
00 17.08 СВ 2 6000 м дымка 10/4 480 м
[Cu med, cong Ac cuf]
+25.1 +23.9 93 +34 +34 очень
душно
1008.8 998.9
03 17.08 С 3 6000 м дымка {ливн. осадки} 10/6 360 м
[Frnb As op]
+26.2 +24.5 90 +37 +37 очень
душно
1010.2 1000.3 +24.6 0.0
06 17.08 штиль 0 6000 м дымка {ливн. осадки} 9/6 360 м
[Frnb Ac As]
+28.6 +24.9 80 +41 +46 опасность
перегрева
1009.3 999.5
09 17.08 З 4 6000 м мгла 10/6 360 м
[Frnb As op]
+29.0 +24.7 78 +41 +42 опасность
перегрева
1008.5 998.7
15 17.08 штиль 0 6000 м дымка 9/5 360 м
[Frnb Ac As]
+26.3 +24.7 91 +37 +37 очень
душно
1009.4 999.5
18 17.08 СВ 2 7000 м слаб. морось 8/5 360 м
[Frnb Ac As]
+25.1 +24.3 95 +35 +35 очень
душно
1010.3 1000.4 0.0
21 17.08 СЗ 2 5000 м слаб. морось 8/5 240 м
[Frnb Ac As]
+24.5 +24.2 98 +34 +34 очень
душно
1009.3 999.4 0.0
00 18.08 Ю 2 4000 м слаб. ливневой дождь {морось} 9/6 240 м
[Frnb Ac As]
+24.3 +24.1 99 +33 +33 очень
душно
1009.5 999.6 0.0
03 18.08 ЮЗ 2 6000 м в посл. час ливневой дождь 6/6 240 м
[Frnb Cs]
+26.0 +24.6 92 +37 +40 очень
душно
1010.3 1000.4 +24.0 6
09 18.08 З 5 10 км 6/6 480 м
[Cu med, cong Ci fib]
+32.2 +23.6 61 +44 +47 опасность
перегрева
1008.8 999.1
15 18.08 СВ 2 5000 м дымка {ливн. осадки} 8/5 360 м
[Frnb As op]
+26.1 +24.1 89 +36 +36 очень
душно
1010.6 1000.7 0.0
18 18.08 ЮЗ 2 6000 м слаб. ливневой дождь 9/6 360 м
[Frnb Ac As]
+25.1 +24.8 98 +35 +35 очень
душно
1011.6 1001.7 0.6
21 18.08 ЮЗ 2 4000 м слаб. морось 8/8 240 м
[Frnb]
+24.5 +24.2 98 +34 +34 очень
душно
1010.3 1000.4 0.0
00 19.08 штиль 0 3000 м дымка {ливн. осадки} 8/8 240 м
[Frnb]
+24.3 +24.0 98 +33 +33 очень
душно
1010.1 1000.2

 

Местоположение метеостанции Ратнапура (Шри Ланка): широта 6.68 долгота 80.40 высота над уровнем моря 88 м.

В архиве по умолчанию представлена погода в Ратнапуре за последнюю неделю. Архивные данные за месяц целиком и за предыдущие месяцы, начиная с января 2011 года, Вы можете получить, выбрав интересующий диапазон дат из раскрывающегося списка и нажав кнопку "Ввод!".


*Определитесь, кто Вы:
робот инопланетянин человек

Внимание! Время в таблицах - всемирное. Для получения местного времени необходимо прибавить поправку, которая равна 6 ч.

Смотрите также архив погоды в соседних городах и на ближайших метеорологических станциях:

Погода в Нувара Элия (Шри Ланка) (52 км)
Погода в Ратмалане (Шри Ланка) (60 км)
Погода в Коломбо (Шри Ланка) (63 км)
Погода в Дияталаве (Шри Ланка) (66 км)
Погода в Галле (Шри Ланка) (75 км)
Погода в Канди (Шри Ланка) (77 км)
Погода в Бадулла (Шри Ланка) (79 км)
Погода в Аэропорту Бандаранаайк (Шри Ланка) (79 км)
Погода в Курунегала (Шри Ланка) (88 км)
Погода в Хамбантоте (Шри Ланка) (102 км)

Пояснения к столбцам:

Ветер - указаны скорость ветра в м/с - средняя за 10 мин, порывы в срок и между сроками (в фигурных скобках) и направление, откуда дует ветер: С - северный, СВ - северо-восточный, В - восточный, ЮВ - юго-восточный, Ю - южный, ЮЗ - юго-западный, З - западный, СЗ - северо-западный.
Видимость - горизонтальная дальность видимости в метрах или километрах. При видимости от 1 до 10 км при отсутствии осадков обычно наблюдается дымка, при ухудшении видимости до 1 км и менее - туман. В сухую погоду видимость может ухудшаться дымом, пылью или мглою.
Явления - указаны атмосферные явления, наблюдавшиеся в срок или в последний час перед сроком; фигурными скобками обозначены явления, наблюдавшиеся между сроками (за 1-3 часа до срока); квадратными скобками обозначены град или гололедные отложения с указанием их диаметра в мм.
Облачность - указаны через наклонную черту общая и нижняя облачность в баллах и высота нижней границы облаков в метрах; квадратными скобками обозначены формы облаков: Ci - перистые, Cs - перисто-слоистые, Cc - перисто-кучевые, Ac - высококучевые, As - высокослоистые, Sc - слоисто-кучевые, Ns - слоисто-дождевые, Cu - кучевые, Cb - кучево-дождевые. Подробнее классификацию облаков см. в Атласе облаков (PDF).
T - Температура воздуха - температура, измеренная на высоте 2 м над землей.
Td - Температура точки росы - температура, при понижении до которой содержащийся в воздухе водяной пар достигнет насыщения.
f - Относительная влажность воздуха - влажноcть воздуха, измеренная на высоте 2 м над землей.
Te - Эффективная температура - температура, которую ощущает одетый по сезону человек в тени. Характеристика душности погоды. При расчете учитывается влияние влажности воздуха и скорости ветра на теплоощущения человека.
Tes - Эффективная температура на солнце - температура, которую ощущает человек, с поправкой на солнечный нагрев. Характеристика знойности погоды. Зависит от высоты солнца над горизонтом, облачности и скорости ветра. Ночью, в пасмурную погоду, а также при ветре 12 м/с и более поправка равна нулю.
P - Атмосферное давление - приведенное к уровню моря атмосферное давление.
Po - Атмосферное давление - измеренное на уровне метеостанции атмосферное давление.
Tmin - Минимальная температура - минимум температуры воздуха на высоте 2 м над землей.
Tmax - Максимальная температура - максимум температуры воздуха на высоте 2 м над землей.
R - Количество осадков - Количество выпавших осадков за период времени, мм. При наведении курсора мыши на число - период времени, за который выпало указанное количество осадков.
R24 - Количество осадков - Количество выпавших осадков за 24 часа, мм.
S - Снежный покров - Высота снежного покрова, см. При наведении курсора мыши на число - состояние снежного покрова и степень покрытия местности в баллах.